This is the latest recevied weather packets stored in our database for station/object KY4GW. If no packets are shown the sender has not sent any weather packets the latest 10 day(s).
| Time | Temp. | Humidity | Pressure | Rain* | Wind** | Luminosity | Snow |
|---|---|---|---|---|---|---|---|
| 1778113242 | 13.33° C | 67% | 1016.6 hPa | 0 mm | - | 2 W/m² | - |
| 1778112939 | 13.33° C | 67% | 1016.2 hPa | 0 mm | - | 2 W/m² | - |
| 1778112637 | 13.89° C | 66% | 1016.2 hPa | 0 mm | - | 3 W/m² | - |
| 1778112333 | 13.89° C | 66% | 1016.2 hPa | 0 mm | - | 3 W/m² | - |
| 1778112028 | 13.89° C | 67% | 1016.6 hPa | 0 mm | - | 5 W/m² | - |
| 1778111726 | 13.89° C | 66% | 1016.6 hPa | 0 mm | - | 5 W/m² | - |
| 1778111421 | 13.89° C | 64% | 1016.6 hPa | 0 mm | - | 7 W/m² | - |
| 1778111119 | 13.89° C | 65% | 1016.2 hPa | 0 mm | - | 8 W/m² | - |
| 1778110816 | 13.89° C | 65% | 1016.2 hPa | 0 mm | - | 12 W/m² | - |
| 1778110513 | 13.89° C | 67% | 1016.2 hPa | 0 mm | - | 10 W/m² | - |
| 1778110210 | 13.89° C | 68% | 1015.8 hPa | 0 mm | - | 10 W/m² | - |
| 1778109906 | 14.44° C | 67% | 1015.8 hPa | 0 mm | - | 13 W/m² | - |
| 1778109601 | 14.44° C | 62% | 1015.8 hPa | 0 mm | - | 18 W/m² | - |
| 1778109299 | 14.44° C | 66% | 1015.5 hPa | 0 mm | - | 16 W/m² | - |
| 1778108997 | 14.44° C | 68% | 1015.5 hPa | 0 mm | - | 22 W/m² | - |
| 1778108692 | 14.44° C | 63% | 1015.5 hPa | 0 mm | - | 25 W/m² | - |
| 1778108389 | 14.44° C | 61% | 1015.1 hPa | 0 mm | - | 27 W/m² | - |
| 1778108087 | 15° C | 59% | 1015.1 hPa | 0 mm | - | 39 W/m² | - |
| 1778107783 | 15° C | 59% | 1015.1 hPa | 0 mm | - | 37 W/m² | - |
| 1778107481 | 15° C | 59% | 1015.5 hPa | 0 mm | - | 32 W/m² | - |
| 1778107177 | 15° C | 60% | 1015.5 hPa | 0 mm | - | 42 W/m² | - |
| 1778106872 | 15° C | 59% | 1015.5 hPa | 0 mm | - | 76 W/m² | - |
| 1778106570 | 15° C | 60% | 1015.1 hPa | 0 mm | - | 73 W/m² | - |
| 1778106266 | 15° C | 60% | 1015.1 hPa | 0 mm | - | 71 W/m² | - |
| 1778105963 | 15.56° C | 59% | 1015.1 hPa | 0 mm | - | 111 W/m² | - |
* Rain latest hour (hover to see other rain measurements)
** Current wind speed in m/s (hover to see current wind gust speed)